Torna al catalogo

COSMOS 1249 COOLANT

LostLEO
NORAD 29020·DEBRIS·🇷🇺 Russia

Lanciato Mar 5, 1981 da Baikonur Cosmodrome

Loading…

Prossimi Passaggi (prossime 24 ore)

TLE

ObsoletoSource: Space-Track

Epoca: Apr 3, 2015, 17:58 UTC

1 29020U 81021V   15093.74908743  .00005621  00000-0  44621-2 0  9998
2 29020  64.9572 227.1611 0033958 154.6236 272.7687 13.91755118516623

Traccia COSMOS 1249 COOLANT in tempo reale con AllMySat

Download on the App Store